www.pogodaiklimat.ru

Погода и климат >> Архив погоды >> Южная Африка >> Маргит


ПОГОДА в Маргите

  • Прогноз погоды в Маргите
  • Монитор погоды в Маргите

АРХИВ ПОГОДЫ в Маргите

Время (UTC), дата Ветер
(напр.,м/с)
 
Видим.   Явления Облачность Т
(С)
Тd
(С)
f
(%)
Тe
(С)
Тes
(С)
Комфортность P
(гПа)
Po
(гПа)
Тmin
(С)
Tmax
(С)
R
(мм)
R24
(мм)
S
(см)
09 9.09 СВ 4 н/о н/о +21.4 +14.1 63 +24 +24 комфорт 1020.3 1002.5 +14.1 +22.0
12 9.09 СВ 5 н/о н/о +21.6 +14.6 64 +25 +25 комфорт 1017.7 1000.0 +14.1 +22.1
15 9.09 СВ 5 н/о н/о +20.3 +14.5 69 +23 +23 комфорт 1017.5 999.7 +20.3 +22.1
18 9.09 СВ 4 н/о н/о +17.5 +14.0 80 +17 +17 1018.6 1000.6 +17.5 +22.1
21 9.09 СВ 4 н/о н/о +16.2 +13.3 83 +16 +16 1017.9 999.9 +16.2 +22.1
00 10.09 СВ 4 н/о н/о +15.1 +12.9 87 +14 +14 1016.8 998.7 +15.1 +22.1
03 10.09 СВ 4 н/о н/о +14.5 +12.3 87 +13 +13 1016.3 998.2 +14.5 +22.1
06 10.09 СВ 3 н/о н/о +18.2 +13.1 72 +19 +19 1016.5 998.6 +14.4
09 10.09 СВ 4 н/о н/о +23.9 +15.5 59 +27 +27 жарко 1015.2 997.7 +14.4 +23.9
12 10.09 СВ 5 н/о н/о +23.6 +15.2 59 +26 +26 жарко 1012.7 995.2 +14.4 +25.1
15 10.09 СВ 4 н/о н/о +21.4 +16.8 75 +25 +25 комфорт 1012.3 994.7 +21.4 +25.1
18 10.09 СВ 3 н/о н/о +18.2 +16.3 89 +19 +19 1012.9 995.1 +18.2 +25.1
21 10.09 С 3 н/о н/о +17.3 +15.4 89 +17 +17 1012.8 994.9 +17.2 +25.1
00 11.09 СВ 4 н/о н/о +16.8 +15.3 91 +16 +16 1011.4 993.5 +16.8 +25.1
03 11.09 С 4 н/о н/о +16.4 +14.4 88 +16 +16 1010.8 992.9 +16.4 +25.1
06 11.09 СВ 3 н/о н/о +19.4 +13.6 69 +21 +21 комфорт 1011.3 993.6 +15.9
09 11.09 Ю 10 н/о н/о +21.5 +16.3 72 +25 +25 комфорт 1014.1 996.5 +15.9 +21.9
12 11.09 Ю 5 н/о н/о +22.5 +15.9 66 +27 +27 душно 1012.5 994.9 +15.9 +22.6
15 11.09 Ю 3 н/о н/о +21.4 +16.6 74 +25 +25 комфорт 1012.2 994.6 +21.4 +22.8
18 11.09 З 2 н/о н/о +18.1 +15.7 86 +19 +19 1014.1 996.2 +18.1 +22.8
21 11.09 СЗ 1 н/о н/о +16.7 +15.0 90 +18 +18 1014.8 996.8 +16.5 +22.8
00 12.09 СЗ 2 н/о н/о +17.5 +16.0 91 +18 +18 1014.5 996.6 +16.4 +22.8
03 12.09 СЗ 2 н/о н/о +16.1 +15.1 94 +16 +16 1013.2 995.2 +15.9 +22.8
06 12.09 С 2 н/о н/о +20.1 +17.1 83 +24 +24 комфорт 1012.9 995.2 +15.9
09 12.09 СВ 3 н/о н/о +22.8 +18.0 74 +28 +28 душно 1011.1 993.6 +15.9 +22.9
12 12.09 СВ 3 н/о н/о +22.4 +18.2 77 +28 +28 душно 1008.0 990.5 +15.9 +23.7
15 12.09 СВ 3 н/о н/о +20.8 +18.0 84 +25 +25 комфорт 1007.2 989.6 +20.3 +23.7
18 12.09 ЮЗ 8 н/о н/о +20.1 +18.2 89 +23 +23 комфорт 1010.0 992.3 +19.6 +23.7
21 12.09 ЮЗ 7 н/о н/о +21.1 +15.7 71 +24 +24 комфорт 1012.3 994.7 +19.6 +23.7
00 13.09 ЮЗ 5 н/о н/о +19.6 +14.2 71 +21 +21 комфорт 1014.1 996.3 +19.6 +23.7
03 13.09 ЮЗ 4 н/о н/о +19.1 +14.2 73 +20 +20 1014.1 996.3 +18.9 +23.7
06 13.09 ЮЗ 5 н/о н/о +19.7 +15.4 76 +22 +22 комфорт 1016.4 998.6 +18.9
09 13.09 Ю 6 н/о н/о +20.0 +14.2 69 +22 +22 комфорт 1017.2 999.4 +18.9 +21.0
12 13.09 Ю 7 н/о н/о +19.1 +11.9 63 +19 +19 1016.5 998.7 +18.9 +21.0
15 13.09 ЮЗ 4 н/о н/о +18.1 +9.5 57 +18 +18 1017.6 999.7 +18.0 +21.0
18 13.09 ЮЗ 4 н/о н/о +17.8 +9.7 59 +18 +18 1020.1 1002.1 +17.6 +21.0
21 13.09 ЮЗ 3 н/о н/о +17.6 +9.0 57 +18 +18 1021.1 1003.1 +17.2 +21.0
00 14.09 ЮЗ 5 н/о н/о +16.0 +7.8 58 +15 +15 1021.4 1003.3 +16.0 +21.0
03 14.09 ЮЗ 3 н/о н/о +15.1 +6.4 56 +14 +14 1021.6 1003.4 +15.1 +21.0
06 14.09 ЮЗ 4 н/о н/о +16.5 +6.4 51 +16 +16 1023.4 1005.3 +15.1
09 14.09 Ю 5 н/о н/о +19.9 +6.4 41 +21 +21 комфорт 1022.5 1004.6 +15.1 +20.2
12 14.09 Ю 4 н/о н/о +19.9 +8.0 46 +21 +21 комфорт 1021.3 1003.4 +15.1 +20.9
15 14.09 ЮВ 2 н/о н/о +18.2 +9.6 57 +19 +19 1021.7 1003.7 +18.2 +20.9
18 14.09 СЗ 2 н/о н/о +17.0 +10.4 65 +17 +17 1022.0 1003.9 +17.0 +20.9
21 14.09 С 2 н/о н/о +17.3 +10.5 64 +18 +18 1022.3 1004.3 +16.7 +20.9
00 15.09 С 3 н/о н/о +16.2 +9.6 65 +16 +16 1021.1 1003.0 +16.2 +20.9
03 15.09 С 2 н/о н/о +17.2 +10.8 66 +18 +18 1020.9 1002.9 +15.9 +20.9
06 15.09 СВ 3 н/о н/о +18.2 +12.9 71 +19 +19 1021.6 1003.6 +15.9
09 15.09 СВ 4 н/о н/о +22.4 +15.1 63 +26 +26 жарко 1020.0 1002.3 +15.9 +22.7
12 15.09 СВ 6 н/о н/о +21.9 +16.4 71 +26 +26 душно 1017.9 1000.2 +15.9 +22.7
15 15.09 СВ 4 н/о н/о +20.9 +17.1 79 +25 +25 комфорт 1018.0 1000.2 +20.8 +22.7
18 15.09 С 2 н/о н/о +19.2 +17.3 89 +22 +22 комфорт 1019.8 1001.9 +19.2 +22.7
21 15.09 С 3 н/о н/о +18.9 +17.0 89 +20 +20 1018.9 1001.0 +18.8 +22.7
00 16.09 С 3 н/о н/о +18.3 +16.9 92 +19 +19 1018.3 1000.4 +18.2 +22.7
03 16.09 СВ 3 н/о н/о +17.7 +16.4 92 +18 +18 1017.3 999.4 +17.5 +22.7

 

Местоположение метеостанции Маргит (Южная Африка): широта -30.85 долгота 30.33 высота над уровнем моря 154 м.

В архиве по умолчанию представлена погода в Маргите за последнюю неделю. Архивные данные за месяц целиком и за предыдущие месяцы, начиная с января 2011 года, Вы можете получить, выбрав интересующий диапазон дат из раскрывающегося списка и нажав кнопку "Ввод!".


*Определитесь, кто Вы:
робот инопланетянин человек

Внимание! Время в таблицах - всемирное. Для получения местного времени необходимо прибавить поправку, которая равна 2 ч.

Смотрите также архив погоды в соседних городах и на ближайших метеорологических станциях:

Погода в Паддоке (Южная Африка) (13 км)
Погода в Порт-Эдварде (Южная Африка) (25 км)
Погода в Пеннингтоне (Южная Африка) (62 км)
Погода в Иксопо (Южная Африка) (82 км)
Погода в Кокстаде (Южная Африка) (97 км)
Погода в Порт Сент-Джон (Южная Африка) (114 км)
Погода в Дурбане (Южная Африка) (115 км)
Погода в Питермарицбург аэропорту (Южная Африка) (134 км)
Погода в Питермарицбурге (Южная Африка) (136 км)
Погода в Аэропорту Вирджиния (Южная Африка) (139 км)

Пояснения к столбцам:

Ветер - указаны скорость ветра в м/с - средняя за 10 мин, порывы в срок и между сроками (в фигурных скобках) и направление, откуда дует ветер: С - северный, СВ - северо-восточный, В - восточный, ЮВ - юго-восточный, Ю - южный, ЮЗ - юго-западный, З - западный, СЗ - северо-западный.
Видимость - горизонтальная дальность видимости в метрах или километрах. При видимости от 1 до 10 км при отсутствии осадков обычно наблюдается дымка, при ухудшении видимости до 1 км и менее - туман. В сухую погоду видимость может ухудшаться дымом, пылью или мглою.
Явления - указаны атмосферные явления, наблюдавшиеся в срок или в последний час перед сроком; фигурными скобками обозначены явления, наблюдавшиеся между сроками (за 1-3 часа до срока); квадратными скобками обозначены град или гололедные отложения с указанием их диаметра в мм.
Облачность - указаны через наклонную черту общая и нижняя облачность в баллах и высота нижней границы облаков в метрах; квадратными скобками обозначены формы облаков: Ci - перистые, Cs - перисто-слоистые, Cc - перисто-кучевые, Ac - высококучевые, As - высокослоистые, Sc - слоисто-кучевые, Ns - слоисто-дождевые, Cu - кучевые, Cb - кучево-дождевые. Подробнее классификацию облаков см. в Атласе облаков (PDF).
T - Температура воздуха - температура, измеренная на высоте 2 м над землей.
Td - Температура точки росы - температура, при понижении до которой содержащийся в воздухе водяной пар достигнет насыщения.
f - Относительная влажность воздуха - влажноcть воздуха, измеренная на высоте 2 м над землей.
Te - Эффективная температура - температура, которую ощущает одетый по сезону человек в тени. Характеристика душности погоды. При расчете учитывается влияние влажности воздуха и скорости ветра на теплоощущения человека.
Tes - Эффективная температура на солнце - температура, которую ощущает человек, с поправкой на солнечный нагрев. Характеристика знойности погоды. Зависит от высоты солнца над горизонтом, облачности и скорости ветра. Ночью, в пасмурную погоду, а также при ветре 12 м/с и более поправка равна нулю.
P - Атмосферное давление - приведенное к уровню моря атмосферное давление.
Po - Атмосферное давление - измеренное на уровне метеостанции атмосферное давление.
Tmin - Минимальная температура - минимум температуры воздуха на высоте 2 м над землей.
Tmax - Максимальная температура - максимум температуры воздуха на высоте 2 м над землей.
R - Количество осадков - Количество выпавших осадков за период времени, мм. При наведении курсора мыши на число - период времени, за который выпало указанное количество осадков.
R24 - Количество осадков - Количество выпавших осадков за 24 часа, мм.
S - Снежный покров - Высота снежного покрова, см. При наведении курсора мыши на число - состояние снежного покрова и степень покрытия местности в баллах.